| time (UTC) | temp F | wind direction | speed MPH | gust MPH | rain 1hr in | rain 24hr in | rain mn in | humidity % | barometer mb |
| 20260504023002 | 64 | 326 | 10.0 | 18.0 | 0.00 | 0.00 | 0.00 | 36 | 1007.5 |
| 20260504021603 | 65 | 285 | 11.0 | 17.0 | 0.00 | 0.00 | 0.00 | 35 | 1007.5 |
| 20260504020114 | 66 | 265 | 9.0 | 19.0 | 0.00 | 0.00 | 0.00 | 33 | 1007.5 |
| 20260504014604 | 66 | 280 | 7.0 | 16.0 | 0.00 | 0.00 | 0.00 | 32 | 1007.8 |
| 20260504013105 | 67 | 300 | 7.0 | 12.0 | 0.00 | 0.00 | 0.00 | 31 | 1008.0 |
| 20260504011553 | 68 | 302 | 7.0 | 12.0 | 0.00 | 0.00 | 0.00 | 30 | 1008.3 |
| 20260504010051 | 70 | 296 | 7.0 | 19.0 | 0.00 | 0.00 | 0.00 | 28 | 1008.5 |
| 20260504004549 | 71 | 316 | 10.0 | 20.0 | 0.00 | 0.00 | 0.00 | 27 | 1008.9 |
| 20260504003048 | 71 | 300 | 9.0 | 20.0 | 0.00 | 0.00 | 0.00 | 27 | 1009.2 |
| 20260504001544 | 71 | 333 | 9.0 | 20.0 | 0.00 | 0.00 | 0.00 | 27 | 1009.5 |
| 20260504000046 | 71 | 304 | 10.0 | 17.0 | 0.00 | 0.00 | 0.00 | 26 | 1009.8 |
| 20260503234539 | 71 | 279 | 5.0 | 17.0 | 0.00 | 0.00 | 0.00 | 26 | 1010.2 |
| 20260503233036 | 71 | 296 | 6.0 | 16.0 | 0.00 | 0.00 | 0.00 | 24 | 1010.3 |
| 20260503231535 | 72 | 309 | 11.0 | 24.0 | 0.00 | 0.00 | 0.00 | 24 | 1010.6 |
| 20260503230033 | 73 | 307 | 7.0 | 19.0 | 0.00 | 0.00 | 0.00 | 21 | 1010.9 |
| 20260503224532 | 73 | 310 | 12.0 | 24.0 | 0.00 | 0.00 | 0.00 | 22 | 1011.0 |
| 20260503223029 | 73 | 304 | 9.0 | 20.0 | 0.00 | 0.00 | 0.00 | 23 | 1011.4 |
| 20260503221526 | 74 | 307 | 4.0 | 18.0 | 0.00 | 0.00 | 0.00 | 26 | 1011.7 |
| 20260503220023 | 72 | 330 | 8.0 | 22.0 | 0.00 | 0.00 | 0.00 | 25 | 1011.9 |
| 20260503214536 | 71 | 290 | 10.0 | 21.0 | 0.00 | 0.00 | 0.00 | 25 | 1012.2 |
| 20260503213018 | 71 | 294 | 14.0 | 25.0 | 0.00 | 0.00 | 0.00 | 25 | 1012.7 |
| 20260503211515 | 72 | 304 | 9.0 | 22.0 | 0.00 | 0.00 | 0.00 | 25 | 1013.1 |
| 20260503210012 | 71 | 296 | 16.0 | 26.0 | 0.00 | 0.00 | 0.00 | 24 | 1013.6 |
| 20260503204510 | 71 | 287 | 8.0 | 27.0 | 0.00 | 0.00 | 0.00 | 26 | 1014.0 |
| 20260503203007 | 71 | 295 | 14.0 | 22.0 | 0.00 | 0.00 | 0.00 | 25 | 1014.5 |
| 20260503201506 | 70 | 308 | 8.0 | 22.0 | 0.00 | 0.00 | 0.00 | 28 | 1014.7 |
| 20260503200003 | 70 | 308 | 10.0 | 26.0 | 0.00 | 0.00 | 0.00 | 26 | 1015.0 |
| 20260503194502 | 69 | 300 | 11.0 | 19.0 | 0.00 | 0.00 | 0.00 | 27 | 1015.4 |
| 20260503193104 | 69 | 293 | 12.0 | 22.0 | 0.00 | 0.00 | 0.00 | 27 | 1015.9 |
| 20260503191605 | 68 | 324 | 7.0 | 24.0 | 0.00 | 0.00 | 0.00 | 28 | 1016.2 |
| 20260503190053 | 67 | 293 | 12.0 | 22.0 | 0.00 | 0.00 | 0.00 | 28 | 1016.6 |
| 20260503184600 | 67 | 291 | 10.0 | 20.0 | 0.00 | 0.00 | 0.00 | 29 | 1017.1 |
| 20260503183048 | 67 | 262 | 9.0 | 19.0 | 0.00 | 0.00 | 0.00 | 29 | 1017.5 |
| 20260503181607 | 67 | 300 | 5.0 | 18.0 | 0.00 | 0.00 | 0.00 | 31 | 1017.9 |
| 20260503180056 | 66 | 306 | 4.0 | 16.0 | 0.00 | 0.00 | 0.00 | 30 | 1018.3 |
| 20260503174547 | 65 | 299 | 8.0 | 21.0 | 0.00 | 0.00 | 0.00 | 31 | 1018.6 |
| 20260503173051 | 65 | 293 | 3.0 | 17.0 | 0.00 | 0.00 | 0.00 | 34 | 1019.1 |
| 20260503171634 | 63 | 295 | 8.0 | 17.0 | 0.00 | 0.00 | 0.00 | 30 | 1019.3 |
| 20260503130113 | 49 | 266 | 3.0 | 8.0 | 0.00 | 0.00 | 0.00 | 47 | 1021.9 |
| 20260503081539 | 47 | 9 | 2.0 | 8.0 | 0.00 | 0.00 | 0.00 | 51 | 1021.9 |
| 20260503071520 | 50 | 357 | 4.0 | 12.0 | 0.00 | 0.00 | 0.00 | 50 | 1021.8 |
| 20260503054509 | 53 | 21 | 3.0 | 10.0 | 0.00 | 0.00 | 0.00 | 55 | 1021.3 |
| 20260503053100 | 53 | 328 | 2.0 | 14.0 | 0.00 | 0.00 | 0.00 | 55 | 1021.2 |
| 20260503051559 | 54 | 9 | 2.0 | 13.0 | 0.00 | 0.00 | 0.00 | 55 | 1021.1 |
| 20260503050056 | 54 | 335 | 3.0 | 10.0 | 0.00 | 0.00 | 0.00 | 55 | 1021.0 |
| 20260503044607 | 55 | 332 | 2.0 | 7.0 | 0.00 | 0.00 | 0.00 | 55 | 1020.9 |
| 20260503043057 | 55 | 297 | 0.0 | 5.0 | 0.00 | 0.00 | 0.00 | 54 | 1020.7 |
| 20260503041552 | 55 | 297 | 0.0 | 3.0 | 0.00 | 0.00 | 0.00 | 53 | 1020.5 |
| 20260503040100 | 56 | 299 | 0.0 | 4.0 | 0.00 | 0.00 | 0.00 | 52 | 1020.5 |
| 20260503034559 | 56 | 330 | 0.0 | 10.0 | 0.00 | 0.00 | 0.00 | 51 | 1020.5 |
| 20260503033053 | 57 | 307 | 1.0 | 9.0 | 0.00 | 0.00 | 0.00 | 50 | 1020.4 |
| 20260503031550 | 57 | 355 | 1.0 | 8.0 | 0.00 | 0.00 | 0.00 | 49 | 1020.2 |
| 20260503030113 | 58 | 319 | 1.0 | 8.0 | 0.00 | 0.00 | 0.00 | 48 | 1020.1 |
| 20260503024549 | 59 | 304 | 1.0 | 7.0 | 0.00 | 0.00 | 0.00 | 46 | 1019.9 |